Year,Month,Day,Hour,Minute,Value (Times are PST for temperature in C)
2012,08,24,00,00,12.00
2012,08,24,00,01,12.00
2012,08,24,00,02,12.00
2012,08,24,00,03,12.00
2012,08,24,00,04,12.00
2012,08,24,00,05,12.00
2012,08,24,00,06,12.00
2012,08,24,00,07,12.00
2012,08,24,00,08,12.00
2012,08,24,00,09,12.00
2012,08,24,00,10,12.00
2012,08,24,00,11,12.10
2012,08,24,00,12,12.10
2012,08,24,00,13,12.10
2012,08,24,00,14,12.10
2012,08,24,00,15,12.10
2012,08,24,00,16,12.10
2012,08,24,00,17,12.10
2012,08,24,00,18,12.10
2012,08,24,00,19,12.10
2012,08,24,00,20,12.10
2012,08,24,00,21,12.10
2012,08,24,00,22,12.10
2012,08,24,00,23,12.20
2012,08,24,00,24,12.20
2012,08,24,00,25,12.20
2012,08,24,00,26,12.20
2012,08,24,00,27,12.20
2012,08,24,00,28,12.20
2012,08,24,00,29,12.20
2012,08,24,00,30,12.20
2012,08,24,00,31,12.20
2012,08,24,00,32,12.20
2012,08,24,00,33,12.20
2012,08,24,00,34,12.20
2012,08,24,00,35,12.20
2012,08,24,00,36,12.20
2012,08,24,00,37,12.20
2012,08,24,00,38,12.20
2012,08,24,00,39,12.20
2012,08,24,00,40,12.10
2012,08,24,00,41,12.10
2012,08,24,00,42,12.10
2012,08,24,00,43,12.10
2012,08,24,00,44,12.10
2012,08,24,00,45,12.10
2012,08,24,00,46,12.10
2012,08,24,00,47,12.10
2012,08,24,00,48,12.00
2012,08,24,00,49,12.00
2012,08,24,00,50,12.00
2012,08,24,00,51,12.00
2012,08,24,00,52,11.90
2012,08,24,00,53,11.90
2012,08,24,00,54,11.90
2012,08,24,00,55,11.90
2012,08,24,00,56,11.90
2012,08,24,00,57,11.90
2012,08,24,00,58,11.90
2012,08,24,00,59,12.00
2012,08,24,01,00,12.00
2012,08,24,01,01,12.10
2012,08,24,01,02,12.10
2012,08,24,01,03,12.10
2012,08,24,01,04,12.20
2012,08,24,01,05,12.20
2012,08,24,01,06,12.30
2012,08,24,01,07,12.30
2012,08,24,01,08,12.30
2012,08,24,01,09,12.30
2012,08,24,01,10,12.30
2012,08,24,01,11,12.20
2012,08,24,01,12,12.20
2012,08,24,01,13,12.20
2012,08,24,01,14,12.20
2012,08,24,01,15,12.20
2012,08,24,01,16,12.10
2012,08,24,01,17,12.10
2012,08,24,01,18,12.00
2012,08,24,01,19,12.00
2012,08,24,01,20,12.00
2012,08,24,01,21,12.00
2012,08,24,01,22,11.90
2012,08,24,01,23,11.90
2012,08,24,01,24,11.90
2012,08,24,01,25,11.90
2012,08,24,01,26,11.80
2012,08,24,01,27,11.80
2012,08,24,01,28,11.90
2012,08,24,01,29,11.90
2012,08,24,01,30,11.90
2012,08,24,01,31,11.90
2012,08,24,01,32,12.00
2012,08,24,01,33,12.00
2012,08,24,01,34,12.10
2012,08,24,01,35,12.10
2012,08,24,01,36,12.10
2012,08,24,01,37,12.10
2012,08,24,01,38,12.10
2012,08,24,01,39,12.10
2012,08,24,01,40,12.10
2012,08,24,01,41,12.10
2012,08,24,01,42,12.00
2012,08,24,01,43,12.00
2012,08,24,01,44,12.00
2012,08,24,01,45,11.90
2012,08,24,01,46,11.90
2012,08,24,01,47,11.90
2012,08,24,01,48,11.90
2012,08,24,01,49,11.80
2012,08,24,01,50,11.80
2012,08,24,01,51,11.80
2012,08,24,01,52,11.70
2012,08,24,01,53,11.70
2012,08,24,01,54,11.70
2012,08,24,01,55,11.70
2012,08,24,01,56,11.70
2012,08,24,01,57,11.70
2012,08,24,01,58,11.70
2012,08,24,01,59,11.70
2012,08,24,02,00,11.70
2012,08,24,02,01,11.70
2012,08,24,02,02,11.70
2012,08,24,02,03,11.70
2012,08,24,02,04,11.70
2012,08,24,02,05,11.60
2012,08,24,02,06,11.60
2012,08,24,02,07,11.60
2012,08,24,02,08,11.60
2012,08,24,02,09,11.60
2012,08,24,02,10,11.50
2012,08,24,02,11,11.50
2012,08,24,02,12,11.50
2012,08,24,02,13,11.40
2012,08,24,02,14,11.40
2012,08,24,02,15,11.40
2012,08,24,02,16,11.40
2012,08,24,02,17,11.40
2012,08,24,02,18,11.40
2012,08,24,02,19,11.30
2012,08,24,02,20,11.30
2012,08,24,02,21,11.30
2012,08,24,02,22,11.30
2012,08,24,02,23,11.30
2012,08,24,02,24,11.30
2012,08,24,02,25,11.30
2012,08,24,02,26,11.30
2012,08,24,02,27,11.30
2012,08,24,02,28,11.30
2012,08,24,02,29,11.20
2012,08,24,02,30,11.20
2012,08,24,02,31,11.20
2012,08,24,02,32,11.20
2012,08,24,02,33,11.20
2012,08,24,02,34,11.20
2012,08,24,02,35,11.30
2012,08,24,02,36,11.30
2012,08,24,02,37,11.30
2012,08,24,02,38,11.40
2012,08,24,02,39,11.40
2012,08,24,02,40,11.40
2012,08,24,02,41,11.50
2012,08,24,02,42,11.50
2012,08,24,02,43,11.50
2012,08,24,02,44,11.60
2012,08,24,02,45,11.70
2012,08,24,02,46,11.80
2012,08,24,02,47,11.80
2012,08,24,02,48,11.90
2012,08,24,02,49,12.00
2012,08,24,02,50,12.00
2012,08,24,02,51,12.10
2012,08,24,02,52,12.10
2012,08,24,02,53,12.20
2012,08,24,02,54,12.20
2012,08,24,02,55,12.20
2012,08,24,02,56,12.20
2012,08,24,02,57,12.20
2012,08,24,02,58,12.30
2012,08,24,02,59,12.30
2012,08,24,03,00,12.30
2012,08,24,03,01,12.30
2012,08,24,03,02,12.30
2012,08,24,03,03,12.30
2012,08,24,03,04,12.30
2012,08,24,03,05,12.30
2012,08,24,03,06,12.20
2012,08,24,03,07,12.20
2012,08,24,03,08,12.10
2012,08,24,03,09,12.00
2012,08,24,03,10,12.00
2012,08,24,03,11,11.90
2012,08,24,03,12,11.80
2012,08,24,03,13,11.80
2012,08,24,03,14,11.70
2012,08,24,03,15,11.70
2012,08,24,03,16,11.70
2012,08,24,03,17,11.70
2012,08,24,03,18,11.70
2012,08,24,03,19,11.70
2012,08,24,03,20,11.60
2012,08,24,03,21,11.60
2012,08,24,03,22,11.60
2012,08,24,03,23,11.60
2012,08,24,03,24,11.50
2012,08,24,03,25,11.50
2012,08,24,03,26,11.40
2012,08,24,03,27,11.40
2012,08,24,03,28,11.40
2012,08,24,03,29,11.30
2012,08,24,03,30,11.30
2012,08,24,03,31,11.30
2012,08,24,03,32,11.30
2012,08,24,03,33,11.20
2012,08,24,03,34,11.20
2012,08,24,03,35,11.20
2012,08,24,03,36,11.20
2012,08,24,03,37,11.10
2012,08,24,03,38,11.10
2012,08,24,03,39,11.10
2012,08,24,03,40,11.10
2012,08,24,03,41,11.10
2012,08,24,03,42,11.10
2012,08,24,03,43,11.10
2012,08,24,03,44,11.10
2012,08,24,03,45,11.10
2012,08,24,03,46,11.20
2012,08,24,03,47,11.20
2012,08,24,03,48,11.20
2012,08,24,03,49,11.20
2012,08,24,03,50,11.30
2012,08,24,03,51,11.30
2012,08,24,03,52,11.30
2012,08,24,03,53,11.30
2012,08,24,03,54,11.30
2012,08,24,03,55,11.30
2012,08,24,03,56,11.30
2012,08,24,03,57,11.40
2012,08,24,03,58,11.40
2012,08,24,03,59,11.40
2012,08,24,04,00,11.30
2012,08,24,04,01,11.30
2012,08,24,04,02,11.30
2012,08,24,04,03,11.30
2012,08,24,04,04,11.20
2012,08,24,04,05,11.20
2012,08,24,04,06,11.20
2012,08,24,04,07,11.10
2012,08,24,04,08,11.10
2012,08,24,04,09,11.10
2012,08,24,04,10,11.00
2012,08,24,04,11,11.00
2012,08,24,04,12,11.00
2012,08,24,04,13,11.00
2012,08,24,04,14,11.00
2012,08,24,04,15,11.00
2012,08,24,04,16,11.00
2012,08,24,04,17,11.00
2012,08,24,04,18,11.00
2012,08,24,04,19,11.00
2012,08,24,04,20,11.00
2012,08,24,04,21,11.00
2012,08,24,04,22,11.00
2012,08,24,04,23,11.00
2012,08,24,04,24,11.00
2012,08,24,04,25,10.90
2012,08,24,04,26,10.90
2012,08,24,04,27,10.90
2012,08,24,04,28,10.90
2012,08,24,04,29,10.90
2012,08,24,04,30,10.90
2012,08,24,04,31,10.90
2012,08,24,04,32,10.90
2012,08,24,04,33,10.90
2012,08,24,04,34,10.90
2012,08,24,04,35,10.90
2012,08,24,04,36,10.90
2012,08,24,04,37,10.90
2012,08,24,04,38,10.90
2012,08,24,04,39,10.90
2012,08,24,04,40,10.90
2012,08,24,04,41,10.90
2012,08,24,04,42,10.90
2012,08,24,04,43,10.90
2012,08,24,04,44,10.90
2012,08,24,04,45,10.90
2012,08,24,04,46,10.90
2012,08,24,04,47,10.90
2012,08,24,04,48,10.90
2012,08,24,04,49,10.90
2012,08,24,04,50,10.90
2012,08,24,04,51,10.90
2012,08,24,04,52,10.90
2012,08,24,04,53,10.90
2012,08,24,04,54,10.90
2012,08,24,04,55,10.90
2012,08,24,04,56,10.90
2012,08,24,04,57,10.90
2012,08,24,04,58,10.90
2012,08,24,04,59,11.00
2012,08,24,05,00,11.00
2012,08,24,05,01,11.00
2012,08,24,05,02,11.10
2012,08,24,05,03,11.10
2012,08,24,05,04,11.10
2012,08,24,05,05,11.20
2012,08,24,05,06,11.20
2012,08,24,05,07,11.20
2012,08,24,05,08,11.20
2012,08,24,05,09,11.20
2012,08,24,05,10,11.20
2012,08,24,05,11,11.20
2012,08,24,05,12,11.20
2012,08,24,05,13,11.20
2012,08,24,05,14,11.20
2012,08,24,05,15,11.10
2012,08,24,05,16,11.10
2012,08,24,05,17,11.10
2012,08,24,05,18,11.10
2012,08,24,05,19,11.10
2012,08,24,05,20,11.10
2012,08,24,05,21,11.10
2012,08,24,05,22,11.10
2012,08,24,05,23,11.10
2012,08,24,05,24,11.10
2012,08,24,05,25,11.10
2012,08,24,05,26,11.10
2012,08,24,05,27,11.10
2012,08,24,05,28,11.10
2012,08,24,05,29,11.10
2012,08,24,05,30,11.10
2012,08,24,05,31,11.10
2012,08,24,05,32,11.10
2012,08,24,05,33,11.10
2012,08,24,05,34,11.00
2012,08,24,05,35,11.00
2012,08,24,05,36,11.00
2012,08,24,05,37,10.90
2012,08,24,05,38,10.90
2012,08,24,05,39,10.90
2012,08,24,05,40,10.90
2012,08,24,05,41,10.90
2012,08,24,05,42,10.80
2012,08,24,05,43,10.80
2012,08,24,05,44,10.80
2012,08,24,05,45,10.80
2012,08,24,05,46,10.70
2012,08,24,05,47,10.70
2012,08,24,05,48,10.70
2012,08,24,05,49,10.70
2012,08,24,05,50,10.70
2012,08,24,05,51,10.60
2012,08,24,05,52,10.60
2012,08,24,05,53,10.60
2012,08,24,05,54,10.60
2012,08,24,05,55,10.60
2012,08,24,05,56,10.60
2012,08,24,05,57,10.50
2012,08,24,05,58,10.50
2012,08,24,05,59,10.50
2012,08,24,06,00,10.40
2012,08,24,06,01,10.40
2012,08,24,06,02,10.40
2012,08,24,06,03,10.40
2012,08,24,06,04,10.40
2012,08,24,06,05,10.40
2012,08,24,06,06,10.30
2012,08,24,06,07,10.30
2012,08,24,06,08,10.30
2012,08,24,06,09,10.30
2012,08,24,06,10,10.30
2012,08,24,06,11,10.30
2012,08,24,06,12,10.30
2012,08,24,06,13,10.20
2012,08,24,06,14,10.20
2012,08,24,06,15,10.20
2012,08,24,06,16,10.20
2012,08,24,06,17,10.20
2012,08,24,06,18,10.20
2012,08,24,06,19,10.20
2012,08,24,06,20,10.20
2012,08,24,06,21,10.20
2012,08,24,06,22,10.20
2012,08,24,06,23,10.20
2012,08,24,06,24,10.10
2012,08,24,06,25,10.10
2012,08,24,06,26,10.10
2012,08,24,06,27,10.10
2012,08,24,06,28,10.10
2012,08,24,06,29,10.10
2012,08,24,06,30,10.10
2012,08,24,06,31,10.10
2012,08,24,06,32,10.10
2012,08,24,06,33,10.00
2012,08,24,06,34,10.00
2012,08,24,06,35,10.00
2012,08,24,06,36,9.90
2012,08,24,06,37,9.90
2012,08,24,06,38,9.90
2012,08,24,06,39,9.90
2012,08,24,06,40,9.90
2012,08,24,06,41,9.90
2012,08,24,06,42,9.90
2012,08,24,06,43,9.90
2012,08,24,06,44,9.90
2012,08,24,06,45,9.80
2012,08,24,06,46,9.80
2012,08,24,06,47,9.80
2012,08,24,06,48,9.80
2012,08,24,06,49,9.80
2012,08,24,06,50,9.80
2012,08,24,06,51,9.80
2012,08,24,06,52,9.80
2012,08,24,06,53,9.80
2012,08,24,06,54,9.80
2012,08,24,06,55,9.80
2012,08,24,06,56,9.80
2012,08,24,06,57,9.80
2012,08,24,06,58,9.80
2012,08,24,06,59,9.80
2012,08,24,07,00,9.80
2012,08,24,07,01,9.80
2012,08,24,07,02,9.80
2012,08,24,07,03,9.80
2012,08,24,07,04,9.70
2012,08,24,07,05,9.80
2012,08,24,07,06,9.70
2012,08,24,07,07,9.80
2012,08,24,07,08,9.70
2012,08,24,07,09,9.70
2012,08,24,07,10,9.80
2012,08,24,07,11,9.70
2012,08,24,07,12,9.80
2012,08,24,07,13,9.80
2012,08,24,07,14,9.80
2012,08,24,07,15,9.80
2012,08,24,07,16,9.80
2012,08,24,07,17,9.80
2012,08,24,07,18,9.80
2012,08,24,07,19,9.80
2012,08,24,07,20,9.80
2012,08,24,07,21,9.80
2012,08,24,07,22,9.80
2012,08,24,07,23,9.80
2012,08,24,07,24,9.80
2012,08,24,07,25,9.70
2012,08,24,07,26,9.80
2012,08,24,07,27,9.80
2012,08,24,07,28,9.80
2012,08,24,07,29,9.70
2012,08,24,07,30,9.70
2012,08,24,07,31,9.70
2012,08,24,07,32,9.70
2012,08,24,07,33,9.70
2012,08,24,07,34,9.80
2012,08,24,07,35,9.80
2012,08,24,07,36,9.80
2012,08,24,07,37,9.80
2012,08,24,07,38,9.80
2012,08,24,07,39,9.80
2012,08,24,07,40,9.80
2012,08,24,07,41,9.80
2012,08,24,07,42,9.80
2012,08,24,07,43,9.80
2012,08,24,07,44,9.80
2012,08,24,07,45,9.80
2012,08,24,07,46,9.80
2012,08,24,07,47,9.80
2012,08,24,07,48,9.80
2012,08,24,07,49,9.80
2012,08,24,07,50,9.80
2012,08,24,07,51,9.70
2012,08,24,07,52,9.70
2012,08,24,07,53,9.70
2012,08,24,07,54,9.70
2012,08,24,07,55,9.70
2012,08,24,07,56,9.80
2012,08,24,07,57,9.80
2012,08,24,07,58,9.80
2012,08,24,07,59,9.80
2012,08,24,08,00,9.80
2012,08,24,08,01,9.80
2012,08,24,08,02,9.80
2012,08,24,08,03,9.80
2012,08,24,08,04,9.80
2012,08,24,08,05,9.80
2012,08,24,08,06,9.80
2012,08,24,08,07,9.80
2012,08,24,08,08,9.80
2012,08,24,08,09,9.90
2012,08,24,08,10,9.90
2012,08,24,08,11,9.90
2012,08,24,08,12,9.90
2012,08,24,08,13,9.90
2012,08,24,08,14,9.90
2012,08,24,08,15,9.90
2012,08,24,08,16,9.90
2012,08,24,08,17,9.90
2012,08,24,08,18,9.90
2012,08,24,08,19,9.90
2012,08,24,08,20,9.90
2012,08,24,08,21,9.90
2012,08,24,08,22,10.00
2012,08,24,08,23,10.00
2012,08,24,08,24,10.00
2012,08,24,08,25,10.00
2012,08,24,08,26,10.00
2012,08,24,08,27,10.00
2012,08,24,08,28,10.10
2012,08,24,08,29,10.10
2012,08,24,08,30,10.10
2012,08,24,08,31,10.10
2012,08,24,08,32,10.10
2012,08,24,08,33,10.10
2012,08,24,08,34,10.10
2012,08,24,08,35,10.20
2012,08,24,08,36,10.20
2012,08,24,08,37,10.20
2012,08,24,08,38,10.20
2012,08,24,08,39,10.20
2012,08,24,08,40,10.30
2012,08,24,08,41,10.30
2012,08,24,08,42,10.30
2012,08,24,08,43,10.30
2012,08,24,08,44,10.30
2012,08,24,08,45,10.40
2012,08,24,08,46,10.40
2012,08,24,08,47,10.40
2012,08,24,08,48,10.50
2012,08,24,08,49,10.60
2012,08,24,08,50,10.60
2012,08,24,08,51,10.70
2012,08,24,08,52,10.80
2012,08,24,08,53,10.80
2012,08,24,08,54,10.90
2012,08,24,08,55,11.00
2012,08,24,08,56,11.20
2012,08,24,08,57,11.30
2012,08,24,08,58,11.40
2012,08,24,08,59,11.60
2012,08,24,09,00,11.70
2012,08,24,09,01,11.80
2012,08,24,09,02,11.90
2012,08,24,09,03,12.10
2012,08,24,09,04,12.20
2012,08,24,09,05,12.30
2012,08,24,09,06,12.40
2012,08,24,09,07,12.50
2012,08,24,09,08,12.60
2012,08,24,09,09,12.70
2012,08,24,09,10,12.80
2012,08,24,09,11,12.90
2012,08,24,09,12,12.90
2012,08,24,09,13,13.00
2012,08,24,09,14,13.00
2012,08,24,09,15,13.10
2012,08,24,09,16,13.10
2012,08,24,09,17,13.10
2012,08,24,09,18,13.10
2012,08,24,09,19,13.10
2012,08,24,09,20,13.10
2012,08,24,09,21,13.10
2012,08,24,09,22,13.10
2012,08,24,09,23,13.20
2012,08,24,09,24,13.20
2012,08,24,09,25,13.20
2012,08,24,09,26,13.20
2012,08,24,09,27,13.20
2012,08,24,09,28,13.20
2012,08,24,09,29,13.20
2012,08,24,09,30,13.20
2012,08,24,09,31,13.20
2012,08,24,09,32,13.20
2012,08,24,09,33,13.30
2012,08,24,09,34,13.30
2012,08,24,09,35,13.30
2012,08,24,09,36,13.30
2012,08,24,09,37,13.30
2012,08,24,09,38,13.30
2012,08,24,09,39,13.30
2012,08,24,09,40,13.40
2012,08,24,09,41,13.40
2012,08,24,09,42,13.40
2012,08,24,09,43,13.40
2012,08,24,09,44,13.50
2012,08,24,09,45,13.50
2012,08,24,09,46,13.60
2012,08,24,09,47,13.60
2012,08,24,09,48,13.60
2012,08,24,09,49,13.60
2012,08,24,09,50,13.70
2012,08,24,09,51,13.70
2012,08,24,09,52,13.70
2012,08,24,09,53,13.70
2012,08,24,09,54,13.80
2012,08,24,09,55,13.80
2012,08,24,09,56,13.80
2012,08,24,09,57,13.90
2012,08,24,09,58,13.90
2012,08,24,09,59,13.90
2012,08,24,10,00,14.00
2012,08,24,10,01,14.00
2012,08,24,10,02,14.10
2012,08,24,10,03,14.10
2012,08,24,10,04,14.20
2012,08,24,10,05,14.20
2012,08,24,10,06,14.20
2012,08,24,10,07,14.30
2012,08,24,10,08,14.30
2012,08,24,10,09,14.40
2012,08,24,10,10,14.40
2012,08,24,10,11,14.50
2012,08,24,10,12,14.50
2012,08,24,10,13,14.60
2012,08,24,10,14,14.60
2012,08,24,10,15,14.70
2012,08,24,10,16,14.70
2012,08,24,10,17,14.80
2012,08,24,10,18,14.90
2012,08,24,10,19,15.00
2012,08,24,10,20,15.00
2012,08,24,10,21,15.00
2012,08,24,10,22,15.00
2012,08,24,10,23,15.00
2012,08,24,10,24,15.00
2012,08,24,10,25,15.10
2012,08,24,10,26,15.20
2012,08,24,10,27,15.20
2012,08,24,10,28,15.30
2012,08,24,10,29,15.30
2012,08,24,10,30,15.30
2012,08,24,10,31,15.40
2012,08,24,10,32,15.40
2012,08,24,10,33,15.40
2012,08,24,10,34,15.40
2012,08,24,10,35,15.50
2012,08,24,10,36,15.50
2012,08,24,10,37,15.50
2012,08,24,10,38,15.60
2012,08,24,10,39,15.60
2012,08,24,10,40,15.60
2012,08,24,10,41,15.70
2012,08,24,10,42,15.70
2012,08,24,10,43,15.70
2012,08,24,10,44,15.70
2012,08,24,10,45,15.80
2012,08,24,10,46,15.80
2012,08,24,10,47,15.80
2012,08,24,10,48,15.80
2012,08,24,10,49,15.90
2012,08,24,10,50,15.90
2012,08,24,10,51,15.90
2012,08,24,10,52,15.90
2012,08,24,10,53,16.00
2012,08,24,10,54,16.00
2012,08,24,10,55,16.00
2012,08,24,10,56,16.00
2012,08,24,10,57,16.00
2012,08,24,10,58,16.10
2012,08,24,10,59,16.10
2012,08,24,11,00,16.10
2012,08,24,11,01,16.10
2012,08,24,11,02,16.10
2012,08,24,11,03,16.10
2012,08,24,11,04,16.10
2012,08,24,11,05,16.10
2012,08,24,11,06,16.10
2012,08,24,11,07,16.10
2012,08,24,11,08,16.20
2012,08,24,11,09,16.20
2012,08,24,11,10,16.20
2012,08,24,11,11,16.20
2012,08,24,11,12,16.20
2012,08,24,11,13,16.20
2012,08,24,11,14,16.20
2012,08,24,11,15,16.20
2012,08,24,11,16,16.20
2012,08,24,11,17,16.30
2012,08,24,11,18,16.30
2012,08,24,11,19,16.30
2012,08,24,11,20,16.30
2012,08,24,11,21,16.30
2012,08,24,11,22,16.30
2012,08,24,11,23,16.30
2012,08,24,11,24,16.30
2012,08,24,11,25,16.30
2012,08,24,11,26,16.30
2012,08,24,11,27,16.40
2012,08,24,11,28,16.40
2012,08,24,11,29,16.40
2012,08,24,11,30,16.50
2012,08,24,11,31,16.50
2012,08,24,11,32,16.60
2012,08,24,11,33,16.60
2012,08,24,11,34,16.60
2012,08,24,11,35,16.60
2012,08,24,11,36,16.60
2012,08,24,11,37,16.70
2012,08,24,11,38,16.70
2012,08,24,11,39,16.70
2012,08,24,11,40,16.70
2012,08,24,11,41,16.70
2012,08,24,11,42,16.70
2012,08,24,11,43,16.70
2012,08,24,11,44,16.70
2012,08,24,11,45,16.70
2012,08,24,11,46,16.70
2012,08,24,11,47,16.70
2012,08,24,11,48,16.70
2012,08,24,11,49,16.70
2012,08,24,11,50,16.70
2012,08,24,11,51,16.70
2012,08,24,11,52,16.70
2012,08,24,11,53,16.70
2012,08,24,11,54,16.70
2012,08,24,11,55,16.70
2012,08,24,11,56,16.80
2012,08,24,11,57,16.80
2012,08,24,11,58,16.80
2012,08,24,11,59,16.80
2012,08,24,12,00,16.90
2012,08,24,12,01,16.90
2012,08,24,12,02,16.90
2012,08,24,12,03,16.90
2012,08,24,12,04,17.00
2012,08,24,12,05,17.00
2012,08,24,12,06,17.00
2012,08,24,12,07,17.00
2012,08,24,12,08,17.00
2012,08,24,12,09,17.00
2012,08,24,12,10,17.00
2012,08,24,12,11,17.00
2012,08,24,12,12,17.00
2012,08,24,12,13,17.00
2012,08,24,12,14,17.00
2012,08,24,12,15,17.00
2012,08,24,12,16,17.00
2012,08,24,12,17,17.00
2012,08,24,12,18,17.00
2012,08,24,12,19,17.00
2012,08,24,12,20,17.00
2012,08,24,12,21,17.00
2012,08,24,12,22,17.10
2012,08,24,12,23,17.10
2012,08,24,12,24,17.10
2012,08,24,12,25,17.20
2012,08,24,12,26,17.20
2012,08,24,12,27,17.30
2012,08,24,12,28,17.30
2012,08,24,12,29,17.40
2012,08,24,12,30,17.40
2012,08,24,12,31,17.50
2012,08,24,12,32,17.50
2012,08,24,12,33,17.60
2012,08,24,12,34,17.60
2012,08,24,12,35,17.60
2012,08,24,12,36,17.60
2012,08,24,12,37,17.50
2012,08,24,12,38,17.50
2012,08,24,12,39,17.40
2012,08,24,12,40,17.40
2012,08,24,12,41,17.30
2012,08,24,12,42,17.30
2012,08,24,12,43,17.20
2012,08,24,12,44,17.20
2012,08,24,12,45,17.10
2012,08,24,12,46,17.10
2012,08,24,12,47,17.10
2012,08,24,12,48,17.00
2012,08,24,12,49,17.00
2012,08,24,12,50,17.00
2012,08,24,12,51,16.90
2012,08,24,12,52,16.90
2012,08,24,12,53,16.90
2012,08,24,12,54,16.90
2012,08,24,12,55,16.90
2012,08,24,12,56,16.90
2012,08,24,12,57,16.90
2012,08,24,12,58,16.90
2012,08,24,12,59,16.90
2012,08,24,13,00,17.00
2012,08,24,13,01,17.00
2012,08,24,13,02,17.00
2012,08,24,13,03,17.00
2012,08,24,13,04,17.00
2012,08,24,13,05,17.00
2012,08,24,13,06,17.00
2012,08,24,13,07,17.10
2012,08,24,13,08,17.10
2012,08,24,13,09,17.10
2012,08,24,13,10,17.10
2012,08,24,13,11,17.10
2012,08,24,13,12,17.10
2012,08,24,13,13,17.10
2012,08,24,13,14,17.10
2012,08,24,13,15,17.10
2012,08,24,13,16,17.10
2012,08,24,13,17,17.10
2012,08,24,13,18,17.10
2012,08,24,13,19,17.10
2012,08,24,13,20,17.10
2012,08,24,13,21,17.10
2012,08,24,13,22,17.10
2012,08,24,13,23,17.10
2012,08,24,13,24,17.10
2012,08,24,13,25,17.10
2012,08,24,13,26,17.10
2012,08,24,13,27,17.10
2012,08,24,13,28,17.10
2012,08,24,13,29,17.10
2012,08,24,13,30,17.10
2012,08,24,13,31,17.10
2012,08,24,13,32,17.10
2012,08,24,13,33,17.10
2012,08,24,13,34,17.10
2012,08,24,13,35,17.10
2012,08,24,13,36,17.20
2012,08,24,13,37,17.20
2012,08,24,13,38,17.20
2012,08,24,13,39,17.20
2012,08,24,13,40,17.20
2012,08,24,13,41,17.20
2012,08,24,13,42,17.20
2012,08,24,13,43,17.20
2012,08,24,13,44,17.30
2012,08,24,13,45,17.30
2012,08,24,13,46,17.30
2012,08,24,13,47,17.30
2012,08,24,13,48,17.30
2012,08,24,13,49,17.30
2012,08,24,13,50,17.40
2012,08,24,13,51,17.40
2012,08,24,13,52,17.40
2012,08,24,13,53,17.40
2012,08,24,13,54,17.50
2012,08,24,13,55,17.50
2012,08,24,13,56,17.50
2012,08,24,13,57,17.60
2012,08,24,13,58,17.60
2012,08,24,13,59,17.70
2012,08,24,14,00,17.70
2012,08,24,14,01,17.80
2012,08,24,14,02,17.80
2012,08,24,14,03,17.80
2012,08,24,14,04,17.90
2012,08,24,14,05,17.90
2012,08,24,14,06,17.90
2012,08,24,14,07,18.00
2012,08,24,14,08,18.00
2012,08,24,14,09,18.10
2012,08,24,14,10,18.10
2012,08,24,14,11,18.10
2012,08,24,14,12,18.10
2012,08,24,14,13,18.10
2012,08,24,14,14,18.20
2012,08,24,14,15,18.20
2012,08,24,14,16,18.30
2012,08,24,14,17,18.40
2012,08,24,14,18,18.50
2012,08,24,14,19,18.60
2012,08,24,14,20,18.70
2012,08,24,14,21,18.80
2012,08,24,14,22,18.80
2012,08,24,14,23,18.90
2012,08,24,14,24,18.90
2012,08,24,14,25,18.90
2012,08,24,14,26,19.00
2012,08,24,14,27,19.00
2012,08,24,14,28,19.10
2012,08,24,14,29,19.10
2012,08,24,14,30,19.10
2012,08,24,14,31,19.20
2012,08,24,14,32,19.20
2012,08,24,14,33,19.20
2012,08,24,14,34,19.20
2012,08,24,14,35,19.30
2012,08,24,14,36,19.30
2012,08,24,14,37,19.30
2012,08,24,14,38,19.30
2012,08,24,14,39,19.30
2012,08,24,14,40,19.30
2012,08,24,14,41,19.30
2012,08,24,14,42,19.30
2012,08,24,14,43,19.30
2012,08,24,14,44,19.30
2012,08,24,14,45,19.30
2012,08,24,14,46,19.40
2012,08,24,14,47,19.40
2012,08,24,14,48,19.50
2012,08,24,14,49,19.60
2012,08,24,14,50,19.70
2012,08,24,14,51,19.70
2012,08,24,14,52,19.80
2012,08,24,14,53,19.90
2012,08,24,14,54,19.90
2012,08,24,14,55,20.00
2012,08,24,14,56,20.00
2012,08,24,14,57,20.00
2012,08,24,14,58,20.00
2012,08,24,14,59,19.90
2012,08,24,15,00,19.80
2012,08,24,15,01,19.80
2012,08,24,15,02,19.80
2012,08,24,15,03,19.70
2012,08,24,15,04,19.70
2012,08,24,15,05,19.60
2012,08,24,15,06,19.60
2012,08,24,15,07,19.60
2012,08,24,15,08,19.60
2012,08,24,15,09,19.70
2012,08,24,15,10,19.80
2012,08,24,15,11,19.80
2012,08,24,15,12,19.80
2012,08,24,15,13,19.80
2012,08,24,15,14,19.80
2012,08,24,15,15,19.90
2012,08,24,15,16,19.90
2012,08,24,15,17,19.90
2012,08,24,15,18,19.90
2012,08,24,15,19,19.80
2012,08,24,15,20,19.80
2012,08,24,15,21,19.90
2012,08,24,15,22,19.90
2012,08,24,15,23,19.90
2012,08,24,15,24,19.90
2012,08,24,15,25,20.00
2012,08,24,15,26,20.00
2012,08,24,15,27,20.10
2012,08,24,15,28,20.20
2012,08,24,15,29,20.30
2012,08,24,15,30,20.30
2012,08,24,15,31,20.30
2012,08,24,15,32,20.30
2012,08,24,15,33,20.30
2012,08,24,15,34,20.30
2012,08,24,15,35,20.30
2012,08,24,15,36,20.30
2012,08,24,15,37,20.40
2012,08,24,15,38,20.40
2012,08,24,15,39,20.50
2012,08,24,15,40,20.60
2012,08,24,15,41,20.60
2012,08,24,15,42,20.60
2012,08,24,15,43,20.60
2012,08,24,15,44,20.60
2012,08,24,15,45,20.60
2012,08,24,15,46,20.70
2012,08,24,15,47,20.70
2012,08,24,15,48,20.70
2012,08,24,15,49,20.70
2012,08,24,15,50,20.70
2012,08,24,15,51,20.60
2012,08,24,15,52,20.60
2012,08,24,15,53,20.70
2012,08,24,15,54,20.70
2012,08,24,15,55,20.80
2012,08,24,15,56,20.70
2012,08,24,15,57,20.70
2012,08,24,15,58,20.60
2012,08,24,15,59,20.60
2012,08,24,16,00,20.50
2012,08,24,16,01,20.50
2012,08,24,16,02,20.40
2012,08,24,16,03,20.40
2012,08,24,16,04,20.40
2012,08,24,16,05,20.40
2012,08,24,16,06,20.40
2012,08,24,16,07,20.30
2012,08,24,16,08,20.30
2012,08,24,16,09,20.30
2012,08,24,16,10,20.30
2012,08,24,16,11,20.40
2012,08,24,16,12,20.40
2012,08,24,16,13,20.40
2012,08,24,16,14,20.40
2012,08,24,16,15,20.40
2012,08,24,16,16,20.40
2012,08,24,16,17,20.50
2012,08,24,16,18,20.60
2012,08,24,16,19,20.70
2012,08,24,16,20,20.70
2012,08,24,16,21,20.70
2012,08,24,16,22,20.70
2012,08,24,16,23,20.70
2012,08,24,16,24,20.60
2012,08,24,16,25,20.60
2012,08,24,16,26,20.60
2012,08,24,16,27,20.60
2012,08,24,16,28,20.60
2012,08,24,16,29,20.60
2012,08,24,16,30,20.60
2012,08,24,16,31,20.60
2012,08,24,16,32,20.60
2012,08,24,16,33,20.60
2012,08,24,16,34,20.70
2012,08,24,16,35,20.80
2012,08,24,16,36,20.90
2012,08,24,16,37,21.10
2012,08,24,16,38,21.20
2012,08,24,16,39,21.30
2012,08,24,16,40,21.40
2012,08,24,16,41,21.50
2012,08,24,16,42,21.60
2012,08,24,16,43,21.60
2012,08,24,16,44,21.60
2012,08,24,16,45,21.60
2012,08,24,16,46,21.60
2012,08,24,16,47,21.60
2012,08,24,16,48,21.60
2012,08,24,16,49,21.50
2012,08,24,16,50,21.50
2012,08,24,16,51,21.40
2012,08,24,16,52,21.30
2012,08,24,16,53,21.30
2012,08,24,16,54,21.20
2012,08,24,16,55,21.30
2012,08,24,16,56,21.30
2012,08,24,16,57,21.30
2012,08,24,16,58,21.30
2012,08,24,16,59,21.30
2012,08,24,17,00,21.30
2012,08,24,17,01,21.30
2012,08,24,17,02,21.20
2012,08,24,17,03,21.10
2012,08,24,17,04,21.00
2012,08,24,17,05,20.90
2012,08,24,17,06,20.80
2012,08,24,17,07,20.70
2012,08,24,17,08,20.60
2012,08,24,17,09,20.60
2012,08,24,17,10,20.50
2012,08,24,17,11,20.50
2012,08,24,17,12,20.40
2012,08,24,17,13,20.40
2012,08,24,17,14,20.30
2012,08,24,17,15,20.30
2012,08,24,17,16,20.30
2012,08,24,17,17,20.30
2012,08,24,17,18,20.30
2012,08,24,17,19,20.40
2012,08,24,17,20,20.40
2012,08,24,17,21,20.40
2012,08,24,17,22,20.40
2012,08,24,17,23,20.40
2012,08,24,17,24,20.30